sat.trackr.live / text

‹ back to catalog

PADRE

NORAD 64559 · 2025-135AH

PAYLOAD ACTIVE UNKNOWN

§ Identity

Operator
Country
US
Launch date
2025-06-23
Launch site
AFWTR
Launch vehicle
Mass (kg)
RCS (m²)

External: N2YO · Heavens-Above · Gunter

§ Orbital elements

Epoch: 2026-05-24T19:31:18.062400Z

Period
96.49 min
Inclination
97.7698°
Eccentricity
0.0001832
Mean motion
14.92403460 rev/d
Perigee alt
589.2 km
Apogee alt
591.7 km
Semi-major
6,968.6 km
B*
1.3824e-4
RAAN
258.7894°
Arg perigee
29.1051°
Mean anomaly
331.0270°
Rev number
5,036

§ Raw data

PADRE1 64559U 25135AH  26144.81340350  .00001359  00000+0  13824-3 0  99942 64559  97.7698 258.7894 0001832  29.1051 331.0270 14.92403460 50365

JSON: /api/v1/satellites/64559 · /tle

For live sub-satellite position, see the globe view (requires WebGL).

§ Visibility from observer

Set your observer location to see the next 7 days of passes ≥ 10°. The values pass through the URL so the page stays shareable.

No JS? Fill the form by hand. The geolocation button needs JavaScript.

§ Radio — SatNOGS DB

ModeDescriptionDownlinkUplink
FM Mode S - Unknown modulation 2.278 GHz
GMSK Mode U - GMSK4k8 401.360 MHz
GMSK Mode U - GMSK9k6 - Telemetry (inactive) 401.360 MHz

3 transmitters · refreshed weekly from db.satnogs.org